Location: B�rgermoos
(47.6500°N, 9.0667°E)
Time: 18:30:12
(UTC+00:00)

Vanguard 2 Rocket - Pass Details

Date: 12 August 2021
Orbit: 555 x 3324 km, 32.9° (Epoch: 15 September)

Event Time Altitude Azimuth Distance (km) Brightness Sun altitude
Rises 01:29:55 0° 209° (SSW) 5,766 - -21.8°
Reaches altitude 10° 01:36:45 10° 188° (S) 4,055 - -21.2°
Exits shadow 01:40:35 13° 166° (SSE) 3,363 9.4 -20.8°
Maximum altitude 01:41:02 13° 163° (SSE) 3,310 9.4 -20.8°
Drops below altitude 10° 01:44:32 10° 137° (SE) 3,171 9.5 -20.5°
Sets 01:48:33 0° 110° (ESE) 3,671 10.2 -20.1°
